Date String (YYYY-MM-DD hh:mm:ss) UTC,Instrument flags,Ambient pressure (hPa),Sample flow (lpm),Bypass flow (lpm),Sample temperature (°C),Ambient temperature (°C),ASC tube jacket temperature (°C),LED temperature (°C),Box temperature (°C),Sample RH (%),Span deviation,Mass concentration (μg/m³),Mass concentration (μg/m³),Mass concentration (μg/m³)
DateTimeUTC,F1_M11,P_M11,Q1_M11,Q2_M11,T1_M11,T2_M11,T3_M11,T4_M11,T5_M11,U1_M11,ZSPAN_M11,X0_M11,X2_M11,X1_M11
2021-09-09 08:00:00,,0831.2,5.01,0.00,29.9,28.8,00.0,38.9,31.7,17.6,0001.8,0039.91,0026.44,0024.26
2021-09-09 08:01:00,,0831.2,5.00,0.00,29.9,28.9,00.0,38.9,31.7,17.6,0001.7,0040.10,0026.43,0024.23
2021-09-09 08:02:00,,0831.1,5.00,0.00,30.0,28.9,00.0,39.0,31.7,17.7,0001.6,0040.63,0026.44,0024.17
2021-09-09 08:03:00,,0831.1,5.01,0.00,30.0,28.9,00.0,39.0,31.7,17.7,0001.6,0040.80,0026.35,0024.06
2021-09-09 08:04:00,,0831.1,5.00,0.00,30.0,29.0,00.0,39.0,31.8,17.7,0001.7,0039.85,0026.22,0023.97
2021-09-09 08:05:00,,0831.1,4.99,0.00,30.0,29.0,00.0,39.0,31.7,17.6,0002.2,0039.33,0026.11,0023.88
2021-09-09 08:06:00,,0831.0,5.00,0.00,30.0,29.0,00.0,39.0,31.8,17.5,0002.3,0039.18,0025.97,0023.80
2021-09-09 08:07:00,,0831.0,5.01,0.00,30.1,29.0,00.0,39.1,31.8,17.5,0002.4,0039.46,0025.84,0023.73
2021-09-09 08:08:00,,0831.0,5.00,0.00,30.1,29.0,00.0,39.1,31.8,17.5,0002.6,0039.45,0025.73,0023.67
2021-09-09 08:09:00,,0831.0,4.99,0.00,30.1,29.1,00.0,39.1,31.8,17.4,0002.6,0039.02,0025.61,0023.60
2021-09-09 08:10:00,,0831.0,5.00,0.00,30.1,29.1,00.0,39.1,31.9,17.4,0002.6,0039.74,0025.61,0023.58
2021-09-09 08:11:00,,0831.1,5.01,0.00,30.1,28.2,00.0,39.1,31.6,17.4,0002.3,0040.02,0025.56,0023.60
2021-09-09 08:12:00,,0831.0,5.00,0.00,29.9,26.4,00.0,39.1,31.1,17.6,0002.3,0040.00,0025.54,0023.58
2021-09-09 08:13:00,,0831.0,5.01,0.00,29.8,26.2,00.0,39.0,31.1,17.7,0002.3,0039.50,0025.48,0023.58
2021-09-09 08:14:00,,0831.0,4.99,0.00,29.7,26.6,00.0,39.0,31.1,17.8,0002.4,0039.62,0025.48,0023.56
2021-09-09 08:15:00,,0831.0,5.00,0.00,29.6,27.0,00.0,38.9,31.1,17.9,0002.4,0039.58,0025.55,0023.58
2021-09-09 08:16:00,,0831.0,5.00,0.00,29.6,27.3,00.0,38.9,31.2,17.9,0002.3,0039.37,0025.57,0023.64
2021-09-09 08:17:00,,0831.0,5.01,0.00,29.6,27.6,00.0,38.9,31.2,17.9,0002.1,0039.53,0025.62,0023.66
2021-09-09 08:18:00,,0831.0,4.98,0.00,29.6,27.8,00.0,38.9,31.3,17.9,0002.1,0039.35,0025.63,0023.66
2021-09-09 08:19:00,,0831.1,5.01,0.00,29.6,28.0,00.0,38.9,31.3,17.8,0002.3,0040.07,0025.77,0023.69
2021-09-09 08:20:00,,0831.1,4.99,0.00,29.7,28.2,00.0,38.9,31.3,17.8,0002.3,0038.73,0025.83,0023.70
2021-09-09 08:21:00,,0831.0,5.00,0.00,29.7,28.3,00.0,38.9,31.3,17.8,0002.3,0038.25,0025.82,0023.71
2021-09-09 08:22:00,,0831.0,5.00,0.00,29.7,28.4,00.0,38.8,31.4,17.8,0002.3,0037.63,0025.78,0023.68
2021-09-09 08:23:00,,0831.0,5.02,0.00,29.7,28.5,00.0,38.8,31.4,17.8,0002.3,0037.36,0025.79,0023.69
2021-09-09 08:24:00,,0831.0,5.00,0.00,29.7,28.5,00.0,38.8,31.4,17.8,0002.3,0038.04,0025.85,0023.71
2021-09-09 08:25:00,,0831.0,4.99,0.00,29.8,28.6,00.0,38.9,31.5,17.7,0002.2,0038.43,0026.01,0023.79
2021-09-09 08:26:00,,0831.0,4.99,0.00,29.8,28.6,00.0,38.9,31.5,17.7,0002.0,0038.54,0026.08,0023.90
2021-09-09 08:27:00,,0831.0,5.01,0.00,29.8,28.6,00.0,38.9,31.5,17.7,0002.1,0038.51,0026.11,0023.92
2021-09-09 08:28:00,,0831.0,5.01,0.00,29.8,28.7,00.0,38.9,31.5,17.7,0002.1,0038.48,0026.20,0023.98
2021-09-09 08:29:00,,0830.9,5.00,0.00,29.8,28.7,00.0,38.9,31.6,17.7,0001.9,0038.82,0026.31,0024.05
2021-09-09 08:30:00,,0830.9,4.99,0.00,29.8,28.7,00.0,38.9,31.6,17.7,0001.6,0038.46,0026.27,0024.07
2021-09-09 08:31:00,,0830.9,5.00,0.00,29.9,28.8,00.0,38.9,31.6,17.6,0001.5,0038.46,0026.21,0024.07
2021-09-09 08:32:00,,0830.9,5.02,0.00,29.9,28.8,00.0,38.9,31.6,17.6,0001.4,0038.06,0026.18,0024.07
2021-09-09 08:33:00,,0830.9,4.99,0.00,29.9,28.8,00.0,38.9,31.7,17.6,0001.4,0038.16,0026.15,0024.08
2021-09-09 08:34:00,,0830.9,5.00,0.00,29.9,28.9,00.0,39.0,31.7,17.6,0001.3,0038.37,0026.18,0024.11
2021-09-09 08:35:00,,0830.9,4.99,0.00,29.9,28.9,00.0,39.0,31.7,17.5,0001.5,0037.97,0026.16,0024.09
2021-09-09 08:36:00,,0830.9,5.01,0.00,30.0,28.9,00.0,39.0,31.7,17.5,0001.6,0037.21,0026.02,0024.04
2021-09-09 08:37:00,,0830.9,4.99,0.00,30.0,28.9,00.0,39.0,31.8,17.5,0001.4,0037.03,0025.96,0023.99
2021-09-09 08:38:00,,0830.9,4.99,0.00,30.0,28.9,00.0,39.0,31.7,17.5,0001.2,0037.41,0026.03,0024.04
2021-09-09 08:39:00,,0830.9,5.01,0.00,30.0,29.0,00.0,39.0,31.7,17.5,0001.3,0037.60,0026.08,0024.10
2021-09-09 08:40:00,,0830.9,4.99,0.00,30.0,29.0,00.0,39.1,31.8,17.4,0001.4,0037.09,0026.04,0024.12
2021-09-09 08:41:00,,0830.9,5.00,0.00,30.1,29.0,00.0,39.1,31.8,17.4,0001.5,0037.98,0026.06,0024.16
2021-09-09 08:42:00,,0830.9,5.00,0.00,30.1,29.0,00.0,39.1,31.8,17.4,0001.4,0038.00,0026.12,0024.22
2021-09-09 08:43:00,,0830.9,5.00,0.00,30.1,29.1,00.0,39.1,31.9,17.4,0001.6,0038.78,0026.25,0024.30
2021-09-09 08:44:00,,0830.9,5.00,0.00,30.1,29.1,00.0,39.1,31.9,17.4,0001.7,0038.62,0026.38,0024.37
2021-09-09 08:45:00,,0830.9,5.00,0.00,30.1,29.1,00.0,39.1,31.9,17.3,0001.8,0038.56,0026.50,0024.43
2021-09-09 08:46:00,,0830.9,5.00,0.00,30.1,29.1,00.0,39.2,31.9,17.3,0001.8,0039.28,0026.57,0024.51
2021-09-09 08:47:00,,0830.9,5.01,0.00,30.1,29.1,00.0,39.2,31.9,17.3,0001.6,0040.25,0026.60,0024.59
2021-09-09 08:48:00,,0830.9,4.98,0.00,30.2,28.8,00.0,39.2,31.8,17.3,0001.7,0040.22,0026.62,0024.62
2021-09-09 08:49:00,,0830.8,5.01,0.00,30.0,26.8,00.0,39.2,31.3,17.4,0001.8,0040.17,0026.58,0024.59
2021-09-09 08:50:00,,0830.8,4.99,0.00,29.9,26.1,00.0,39.1,31.1,17.5,0001.6,0039.89,0026.50,0024.55
2021-09-09 08:51:00,,0830.7,5.00,0.00,29.8,26.4,00.0,39.1,31.1,17.5,0001.5,0041.14,0026.48,0024.53
2021-09-09 08:52:00,,0830.7,4.99,0.00,29.7,26.8,00.0,39.0,31.1,17.6,0001.6,0040.24,0026.42,0024.49
2021-09-09 08:53:00,,0830.7,5.00,0.00,29.7,27.2,00.0,39.0,31.1,17.7,0001.9,0039.81,0026.41,0024.46
2021-09-09 08:54:00,,0830.8,5.01,0.00,29.7,27.5,00.0,38.9,31.2,17.7,0001.8,0038.67,0026.33,0024.42
2021-09-09 08:55:00,,0830.7,5.00,0.00,29.7,27.8,00.0,38.9,31.3,17.6,0001.4,0039.44,0026.22,0024.36
2021-09-09 08:56:00,,0830.7,5.01,0.00,29.7,28.0,00.0,38.9,31.3,17.6,0001.4,0040.00,0026.17,0024.34
2021-09-09 08:57:00,,0830.7,4.98,0.00,29.7,28.1,00.0,38.9,31.3,17.6,0001.3,0039.72,0026.13,0024.28
2021-09-09 08:58:00,,0830.7,5.01,0.00,29.7,28.3,00.0,38.9,31.4,17.7,0001.2,0038.59,0026.07,0024.20
2021-09-09 08:59:00,,0830.7,5.00,0.00,29.7,28.4,00.0,38.9,31.4,17.7,0001.3,0039.18,0026.06,0024.18
